Torna al catalogo

STARLINK-38295

AttivoComunicazioniSSO
NORAD 100323·PAYLOAD·🇺🇸 United States

Lanciato Aug 12, 2026 da Vandenberg Space Force Base

Loading…

Prossimi Passaggi (prossime 24 ore)

TLE

AggiornatoSource: Space-Track

Epoca: Sep 14, 2026, 15:05 UTC

1 A0323U 26184Y   26257.62912266  .00000428  00000-0  14008-4 0  9996
2 A0323  97.2843 122.8765 0002153  98.3222 261.8267 15.36986549  6465

Traccia STARLINK-38295 in tempo reale con AllMySat

Download on the App Store